Ana Sayfa
METAR-TAF:

METAR-TAF

Havaalanları :

Orange County Airport

Montgomery, New York, Amerika Birleşik Devletleri

Enlem: 41-30-33N, Boylam: 074-15-54W, yükseklik: 111 m

Güncel hava durumu gözlemi

Rapor saat 04:54 UTC de 41 dakika önce yapıldı.
Sakin rüzgar
Sıcaklık -3°C
Nem 74%
Basınç 1017 hPa
Görüş mesafesi: 16.1 km
Açık gökyüzü

METAR: KMGJ 240454Z AUTO 00000KT 10SM CLR M03/M07 A3004 RMK AO2 SLP176 T10281072 401171078

Saat: 00:35 (05:35 UTC)


TAF: eksik

4.000'den fazla havaalanı için hava durumu gözlemleri ve tahminleri (METAR ve TAF raporları).

Kullanılabilir istasyonlar harita üzerinde sarı ve kırmızı noktalarla gösterilir.

İstasyonun adını görmek için fareyi noktanın üzerinde gezdirin.

Sonrasında hava gözlem ve tahminlerini görmek için tıklayın.

Haritayı değiştirmek için: yaklaştırmak için siyah artı işaretli yeşil düğmeye ve uzaklaştırmak için de eksi işaretli düğmeye hızla tıklayın; bitişik haritalar için yeşil okları kullanın.


METAR-TAF: